Regional Weather Roundup
Issued by NWS

Home | Current Version | Previous Version | Graphics & Text | Print | Product List | Glossary On
Versions: 1 2 3 4 5 6 7 8 9 10 11 12 13 14 15 16 17 18 19 20 21 22 23 24 25 26 27 28 29 30 31 32 33 34 35 36 37 38 39 40 41 42 43 44 45 46 47 48 49 50
000
ASUS43 KLOT 190603
RWRIL

ILLINOIS REGIONAL WEATHER ROUNDUP
NATIONAL WEATHER SERVICE CHICAGO/ROMEOVILLE IL
1200 AM CST THU JAN 19 2017

NOTE: "FAIR" INDICATES FEW OR NO CLOUDS BELOW 12,000 FEET WITH NO
SIGNIFICANT WEATHER AND/OR OBSTRUCTIONS TO VISIBILITY.

* THESE STATIONS ARE NOT UNDER NWS QUALITY CONTROL. THEY ALSO MAY NOT
  REPORT WEATHER SUCH AS PRECIPITATION OR FOG.

ILZ001-002-007-009-015-016-024-190700-
NORTHWEST ILLINOIS

CITY           SKY/WX    TMP DP  RH WIND       PRES   REMARKS
MOLINE         CLEAR     27  26  96 CALM      30.01F FOG
6HR MIN TEMP:  26; 6HR MAX TEMP:  38;

STERLING*      CLEAR     31  30  96 SE3       30.04S FOG
SAVANNA*       CLEAR     30  30  99 S6        30.01F FOG     WCI  24
$$

ILZ003-004-008-010-011-017-018-190700-
NORTH CENTRAL ILLINOIS

CITY           SKY/WX    TMP DP  RH WIND       PRES   REMARKS
ROCKFORD       CLEAR     30  28  92 S6        30.04S FOG     WCI  24
6HR MIN TEMP:  29; 6HR MAX TEMP:  35;

FREEPORT*      CLEAR     32  31  97 S10       30.02S FOG     WCI  24
ROCHELLE*      CLEAR     32  31  99 S6        30.04S FOG     WCI  26
DE KALB*       FOG       31  31 100 S8        30.04S VSB 1/4 WCI  24
$$

ILZ005-006-012>014-019>023-190700-
NORTHEAST ILLINOIS

CITY           SKY/WX    TMP DP  RH WIND       PRES   REMARKS
CHICAGO-OHARE  CLOUDY    30  29  96 S5        30.03F FOG     WCI  25
6HR MIN TEMP:  30; 6HR MAX TEMP:  36;

CHICAGO-MIDWAY CLOUDY    33  30  88 S8        30.05F FOG     WCI  26
6HR MIN TEMP:  32; 6HR MAX TEMP:  35;

AURORA         CLOUDY    32  30  92 S6        30.05S FOG     WCI  26
6HR MIN TEMP:  31; 6HR MAX TEMP:  37;

LANSING*       CLOUDY    34  34 100 S7        30.07S FOG     WCI  28
JOLIET*        CLOUDY    32  32 100 S3        30.06S FOG
WAUKEGAN       CLOUDY    34  32  92 SW12      30.02F FOG     WCI  25
6HR MIN TEMP:  33; 6HR MAX TEMP:  34;

DUPAGE AIRPORT CLOUDY    29  26  89 S7        30.03F FOG     WCI  22
6HR MIN TEMP:  28; 6HR MAX TEMP:  36;

WHEELING       CLOUDY    31  29  92 S3        30.05S FOG
6HR MIN TEMP:  31; 6HR MAX TEMP:  36;

MORRIS*        CLOUDY    31  31  96 S3        30.05F FOG
ROMEOVILLE*    CLOUDY    32  32 100 S9        30.06S FOG     WCI  24
NORTHERLY ISL    N/A     35  32  88 S8          N/A  WCI  29
$$

LMZ740>746-190700-
SOUTHERN LAKE MICHIGAN

STATION/POSITION SKY/WX   TEMP    WIND        PRES    VSBY  WAVE
                          AIR SEA DIR/SP/G                  HT/PER
                          (F)     (DEG/KT/KT) (MB)    (MI)  (FT/S)
HARRISON CRIB              37     200/ 14/ 15   N/A
BURNHAM HARBOR             35     190/  6/  9   N/A
CALUMET HARBOR             35     190/  4/  6 1017.1F
BURNS HARBOR               37     190/ 10/ 13 1019.0S
$$

ILZ025>027-034>036-040-047-049-050-058-095>099-190700-
WEST-CENTRAL ILLINOIS

CITY           SKY/WX    TMP DP  RH WIND       PRES   REMARKS
QUINCY         PTCLDY    35  33  92 E5        30.00F WCI  31
GALESBURG*     CLEAR     32  32 100 SE5       30.02F FOG     WCI  28
MACOMB*        CLEAR     32  32 100 SE5       30.04F FOG     WCI  27
JACKSONVILLE*  PTCLDY    36  34  93 SE5       30.04F WCI  32
PITTSFIELD*    PTCLDY    37  35  91 SE5       30.03F WCI  33
$$

ILZ028>032-037-038-041>044-048-051>054-059>061-190700-
CENTRAL ILLINOIS

CITY           SKY/WX    TMP DP  RH WIND       PRES   REMARKS
BLOOMINGTON    PTCLDY    33  32  96 S8        30.06F FOG     WCI  26
DECATUR        CLOUDY    34  34 100 S3        30.07F
PEORIA         CLOUDY    33  32  96 S5        30.05F FOG     WCI  29
6HR MIN TEMP:  31; 6HR MAX TEMP:  36;

LACON*         CLOUDY    30  30 100 SE3       30.05S FOG
LINCOLN*       CLOUDY    35  34  98 SE5       30.06F FOG     WCI  31
SPRINGFIELD    CLOUDY    39  35  86 SE5       30.05F
6HR MIN TEMP:  37; 6HR MAX TEMP:  40;

TAYLORVILLE    CLOUDY    37  35  94 SE5       30.05F FOG     WCI  33
6HR MIN TEMP:  37; 6HR MAX TEMP:  38;

$$

ILZ033-039-045-046-055>057-062-063-190700-
EAST-CENTRAL ILLINOIS

CITY           SKY/WX    TMP DP  RH WIND       PRES   REMARKS
CHAMPAIGN      CLOUDY    34  32  92 SE5       30.08F FOG     WCI  30
MATTOON        CLOUDY    36  35  96 SE6       30.07F WCI  31
PARIS*         CLOUDY    35  34  97 E3        30.10F
$$

ILZ079-100>102-190700-
SOUTHWEST ILLINOIS

CITY           SKY/WX    TMP DP  RH WIND       PRES   REMARKS
ALTON          CLOUDY    40  37  90 SE3       30.05R
BELLEVILLE     CLOUDY    41  40  99 SE5       30.05S
CAHOKIA*       LGT RAIN  43  37  79 S7        30.05S
SPARTA*        CLOUDY    40  37  89 SE3       30.06S
$$

ILZ064>066-069>071-074>076-080>082-084>086-088>090-092>094-190700-
SOUTH-CENTRAL ILLINOIS

CITY           SKY/WX    TMP DP  RH WIND       PRES   REMARKS
CARBONDALE     MOCLDY    41  40  96 NE3       30.07S
6HR MIN TEMP:  40; 6HR MAX TEMP:  43;

CAIRO*         CLOUDY    43  41  92 NE6       30.06F
EFFINGHAM*     CLOUDY    38  38  99 E5        30.09F WCI  35
MARION         CLOUDY    43  39  87 CALM      30.07S
MT. VERNON     CLOUDY    40  37  89 E5        30.07
CENTRALIA*     MOCLDY    40  38  93 CALM      30.06F
SALEM*         CLOUDY    41  37  86 SE6       30.06F
$$

ILZ067-068-072-073-078-083-087-091-190700-
SOUTHEAST ILLINOIS

CITY           SKY/WX    TMP DP  RH WIND       PRES   REMARKS
LAWRENCEVILLE  CLOUDY    37  37 100 S5        30.11F FOG     WCI  33
FLORA*         MOCLDY    40  37  91 SE3       30.09F
FAIRFIELD*     CLOUDY    39  37  93 CALM      30.06F
HARRISBURG*    CLOUDY    42  39  92 E6        30.07F
ROBINSON*      CLOUDY    36  35  96 S5        30.12S FOG     WCI  32
CARMI*         MOCLDY    39  38  93 E8        30.07F WCI  34
$$

ABBREVIATIONS USED IN REMARKS
   TC - TEMPERATURE IN CELSIUS
  WCI - WIND CHILL INDEX
   HX - HEAT INDEX
  VSB - VISIBILITY
$$





USA.gov is the U.S. government's official web portal to all federal, state and local government web resources and services.